Location: Unspecified
(29.9680°N, 0.0000°E)
Time: 16:27:01
(UTC+00:00)

A-11 Canister half - Pass Details

Date: 23 June 2019
Orbit: 1526 x 1683 km, 47.3° (Epoch: 17 July)

Event Time Altitude Azimuth Distance (km) Brightness Sun altitude
Rises 06:30:50 0° 286° (WNW) 4,721 11.1 17.3°
Reaches altitude 10° 06:34:37 10° 298° (WNW) 3,720 10.7 18.1°
Maximum altitude 06:42:15 27° 353° (N) 2,603 10.5 19.7°
Drops below altitude 10° 06:49:50 10° 49° (NE) 3,694 12.3 21.3°
Sets 06:53:35 0° 61° (ENE) 4,682 12.9 22.1°
